M I D A S
Marine Information and Data Acquisition System
Tripno 430 of the Zeeleeuw from 2003-02-13 07:17:29 to 2003-02-13 14:59:40
Back to CruiseResearch ActivitiesStationsMapUnderway DataData graphs

EquipmentUnitsComments
TimeDGPSUTC
LatitudeDGPSDM.mWGS84
LongitudeDGPSDM.mWGS84
SpeedMeteo Stationm/sRelative wind speed
DirectionMeteo StationdegRelative wind direction
TemperatureMeteo Stationdeg CelciusAir temperature
PressureMeteo StationPaAtmospheric pressure
HumidityMeteo Station%Relative humidity
Missing or incorrect values are displayed as -999
Metereological data collected by the RV Zeeleeuw from 2003-02-13 07:17:29 to 2003-02-13 14:59:40
Time Latitude Longitude Speed Direction Temperature Pressure Humidity
2003-02-13 07:18 51°13.594 2°56.103 2.8 253 -2.9 102830 83
2003-02-13 07:19 51°13.603 2°56.069 0.9 359 -2.9 102830 83
2003-02-13 07:20 51°13.628 2°55.974 0.8 323 -3 102840 83
2003-02-13 07:21 51°13.662 2°55.885 1.1 300 -2.9 102840 83
2003-02-13 07:22 51°13.675 2°55.845 2.1 304 -3 102840 83
2003-02-13 07:23 51°13.684 2°55.755 2 248 -2.9 102840 83
2003-02-13 07:24 51°13.69 2°55.724 3.3 218 -2.9 102840 83
2003-02-13 07:25 51°13.725 2°55.724 2.5 182 -2.9 102830 83
2003-02-13 07:26 51°13.793 2°55.671 2.4 181 -2.9 102840 83
2003-02-13 07:27 51°13.886 2°55.595 2.6 177 -2.9 102840 83
2003-02-13 07:28 51°14.012 2°55.507 3.7 197 -2.9 102830 83
2003-02-13 07:29 51°14.155 2°55.405 3.6 205 -2.9 102830 84
2003-02-13 07:30 51°14.277 2°55.256 2.9 199 -2.9 102830 84
2003-02-13 07:31 51°14.378 2°55.073 2.7 165 -2.9 102840 84
2003-02-13 07:32 51°14.498 2°54.908 3.2 159 -2.8 102840 85
2003-02-13 07:33 51°14.621 2°54.73 4.5 175 -2.8 102840 85
2003-02-13 07:34 51°14.73 2°54.473 1.5 179 -2.7 102840 85
2003-02-13 07:35 51°14.754 2°54.161 1.7 205 -2.7 102850 85
2003-02-13 07:36 51°14.818 2°53.852 1.9 213 -2.6 102840 85
2003-02-13 07:37 51°14.881 2°53.544 1.9 174 -2.6 102840 84
2003-02-13 07:38 51°14.949 2°53.219 2.4 215 -2.5 102850 85
2003-02-13 07:39 51°15.023 2°52.872 3.4 166 -2.4 102850 85
2003-02-13 07:40 51°15.099 2°52.522 2.2 178 -2.3 102840 84
2003-02-13 07:41 51°15.176 2°52.17 2.4 177 -2.3 102850 84
2003-02-13 07:42 51°15.251 2°51.816 1.6 183 -2.2 102840 84
2003-02-13 07:43 51°15.268 2°51.446 1.5 303 -2.2 102840 83
2003-02-13 07:44 51°15.235 2°51.073 1.4 249 -2.1 102840 83
2003-02-13 07:45 51°15.197 2°50.712 1.9 265 -2.1 102840 83
2003-02-13 07:46 51°15.158 2°50.346 2.3 273 -2 102840 83
2003-02-13 07:47 51°15.12 2°49.98 2.8 281 -2 102840 83
2003-02-13 07:48 51°15.083 2°49.615 2 278 -1.8 102840 83
2003-02-13 07:49 51°15.046 2°49.248 3.5 297 -1.8 102840 83
2003-02-13 07:50 51°15.009 2°48.881 1.8 297 -1.7 102840 82
2003-02-13 07:51 51°14.972 2°48.517 1.8 313 -1.7 102830 82
2003-02-13 07:52 51°14.935 2°48.153 1.5 262 -1.7 102840 82
2003-02-13 07:53 51°14.899 2°47.788 2.5 281 -1.7 102830 82
2003-02-13 07:54 51°14.865 2°47.423 2.6 300 -1.6 102830 82
2003-02-13 07:55 51°14.829 2°47.059 2.2 305 -1.5 102830 81
2003-02-13 07:56 51°14.792 2°46.697 2.5 277 -1.6 102830 81
2003-02-13 07:57 51°14.754 2°46.337 1.7 281 -1.5 102830 81
2003-02-13 07:58 51°14.72 2°45.976 1.3 311 -1.5 102830 81
2003-02-13 07:59 51°14.684 2°45.613 1.8 242 -1.5 102830 80
2003-02-13 08:00 51°14.647 2°45.246 2.1 292 -1.4 102830 81
2003-02-13 08:01 51°14.61 2°44.88 2.7 288 -1.3 102830 81
2003-02-13 08:02 51°14.572 2°44.516 2.5 295 -1.3 102830 80
2003-02-13 08:03 51°14.53 2°44.15 1.2 295 -1.3 102830 80
2003-02-13 08:04 51°14.487 2°43.785 1.3 316 -1.3 102830 79
2003-02-13 08:05 51°14.443 2°43.423 2 291 -1.2 102830 79
2003-02-13 08:06 51°14.398 2°43.061 1.3 317 -1.2 102830 79
2003-02-13 08:07 51°14.356 2°42.699 1.7 244 -1 102820 79
2003-02-13 08:08 51°14.313 2°42.338 3.1 282 -1 102820 79
2003-02-13 08:09 51°14.259 2°41.979 2.1 293 -1 102820 79
2003-02-13 08:10 51°14.203 2°41.624 3.2 304 -0.9 102820 79
2003-02-13 08:11 51°14.148 2°41.385 3.1 345 -0.8 102820 79
2003-02-13 08:12 51°14.1 2°41.263 4.2 6 -0.8 102820 79
2003-02-13 08:13 51°14.092 2°41.17 4.6 65 -0.9 102820 77
2003-02-13 08:14 51°14.121 2°41.113 6.7 102 -0.8 102810 77
2003-02-13 08:15 51°14.137 2°41.099 7.5 122 -0.8 102800 76
2003-02-13 08:16 51°14.145 2°41.094 5.9 119 -0.9 102810 76
2003-02-13 08:17 51°14.154 2°41.087 6.7 124 -1 102810 76
2003-02-13 08:18 51°14.168 2°41.078 6.7 117 -0.9 102810 77
2003-02-13 08:19 51°14.184 2°41.07 6.5 107 -0.9 102810 77
2003-02-13 08:20 51°14.202 2°41.06 7.3 124 -0.9 102810 77
2003-02-13 08:21 51°14.221 2°41.048 5.7 105 -0.9 102800 77
2003-02-13 08:22 51°14.242 2°41.035 5.3 110 -1 102810 76
2003-02-13 08:23 51°14.267 2°40.978 4.6 38 -0.9 102810 77
2003-02-13 08:24 51°14.228 2°40.914 1.5 326 -0.9 102820 77
2003-02-13 08:25 51°14.208 2°40.905 1.7 328 -0.9 102820 78
2003-02-13 08:26 51°14.193 2°40.902 1.8 320 -1 102820 77
2003-02-13 08:27 51°14.177 2°40.903 5.7 299 -1 102810 78
2003-02-13 08:28 51°14.162 2°40.909 6 304 -0.9 102810 79
2003-02-13 08:29 51°14.148 2°40.917 5.7 302 -1 102810 79
2003-02-13 08:30 51°14.134 2°40.927 6.8 298 -0.9 102810 79
2003-02-13 08:31 51°14.121 2°40.938 7.4 300 -0.9 102810 79
2003-02-13 08:32 51°14.109 2°40.95 7.2 300 -0.9 102800 79
2003-02-13 08:33 51°14.096 2°40.964 7.7 290 -0.9 102810 79
2003-02-13 08:34 51°14.086 2°40.981 8.5 290 -0.9 102800 79
2003-02-13 08:35 51°14.078 2°40.997 8.5 284 -1 102800 78
2003-02-13 08:36 51°14.071 2°41.014 8.1 281 -1 102790 78
2003-02-13 08:37 51°14.063 2°41.03 7.7 303 -1 102800 78
2003-02-13 08:38 51°14.053 2°41.045 7.6 292 -0.9 102800 78
2003-02-13 08:39 51°14.04 2°41.061 8 296 -0.9 102790 78
2003-02-13 08:40 51°14.021 2°41.072 6.4 304 -0.9 102800 78
2003-02-13 08:41 51°13.999 2°41.073 1.9 312 -0.9 102800 78
2003-02-13 08:42 51°13.978 2°41.061 1.3 319 -0.9 102790 78
2003-02-13 08:43 51°13.961 2°41.032 5.9 12 -0.9 102790 78
2003-02-13 08:44 51°13.952 2°40.99 5.6 36 -1 102790 78
2003-02-13 08:45 51°13.957 2°40.943 5.3 69 -0.9 102800 79
2003-02-13 08:46 51°13.976 2°40.901 6.4 100 -0.9 102790 77
2003-02-13 08:47 51°14.006 2°40.874 6.2 113 -0.9 102790 79
2003-02-13 08:48 51°14.041 2°40.864 6.1 145 -0.9 102790 78
2003-02-13 08:49 51°14.085 2°40.868 6.1 149 -0.9 102790 78
2003-02-13 08:50 51°14.175 2°40.799 4.6 137 -1 102790 78
2003-02-13 08:51 51°14.314 2°40.677 6 161 -1 102790 78
2003-02-13 08:52 51°14.482 2°40.54 7.1 171 -1 102790 78
2003-02-13 08:53 51°14.686 2°40.373 5.2 178 -1 102790 78
2003-02-13 08:54 51°14.896 2°40.218 6 182 -0.9 102780 79
2003-02-13 08:55 51°15.107 2°40.063 8.9 172 -0.9 102780 79
2003-02-13 08:56 51°15.319 2°39.907 7.2 178 -0.9 102790 78
2003-02-13 08:57 51°15.534 2°39.749 7.1 178 -0.9 102780 78
2003-02-13 08:58 51°15.742 2°39.596 7.2 176 -0.8 102780 77
2003-02-13 08:59 51°15.956 2°39.442 8.2 177 -0.8 102780 78
2003-02-13 09:00 51°16.175 2°39.282 7.7 181 -0.8 102790 78
2003-02-13 09:01 51°16.395 2°39.145 7.9 176 -0.7 102780 78
2003-02-13 09:02 51°16.605 2°39.017 7.4 173 -0.7 102780 77
2003-02-13 09:03 51°16.73 2°39.016 8.2 168 -0.6 102780 78
2003-02-13 09:04 51°16.795 2°39 4.6 99 -0.6 102800 76
2003-02-13 09:05 51°16.798 2°38.934 5.1 358 -0.5 102800 77
2003-02-13 09:06 51°16.756 2°38.917 5.4 300 -0.4 102790 76
2003-02-13 09:07 51°16.737 2°38.927 4.1 296 -0.4 102810 76
2003-02-13 09:08 51°16.72 2°38.941 5.8 303 -0.2 102790 77
2003-02-13 09:09 51°16.705 2°38.957 8.5 294 -0.2 102800 76
2003-02-13 09:10 51°16.692 2°38.973 7.8 300 -0.2 102790 76
2003-02-13 09:11 51°16.682 2°38.988 6.9 297 -0.2 102790 76
2003-02-13 09:12 51°16.671 2°39.001 6.7 303 -0.2 102790 76
2003-02-13 09:13 51°16.662 2°39.012 5.2 300 -0.3 102790 75
2003-02-13 09:14 51°16.652 2°39.025 5.1 305 -0.3 102790 75
2003-02-13 09:15 51°16.643 2°39.036 3.8 317 -0.3 102790 76
2003-02-13 09:16 51°16.634 2°39.047 5 294 -0.2 102790 76
2003-02-13 09:17 51°16.625 2°39.057 3.2 314 -0.1 102790 76
2003-02-13 09:18 51°16.616 2°39.066 3.9 293 -0.2 102790 76
2003-02-13 09:19 51°16.608 2°39.076 3.2 308 -0.2 102780 76
2003-02-13 09:20 51°16.599 2°39.086 4.6 301 -0.2 102780 76
2003-02-13 09:21 51°16.59 2°39.096 2.1 318 -0.1 102780 76
2003-02-13 09:22 51°16.582 2°39.105 5.1 296 -0.1 102780 76
2003-02-13 09:23 51°16.573 2°39.113 4.1 309 -0.2 102780 76
2003-02-13 09:24 51°16.565 2°39.122 3.3 338 -0.2 102790 76
2003-02-13 09:25 51°16.557 2°39.132 4.5 301 -0.2 102780 76
2003-02-13 09:26 51°16.549 2°39.142 1.7 350 -0.1 102780 76
2003-02-13 09:27 51°16.541 2°39.151 3.3 299 -0.2 102790 75
2003-02-13 09:28 51°16.533 2°39.161 2.2 318 -0.1 102790 77
2003-02-13 09:29 51°16.525 2°39.17 3.6 326 -0.2 102790 77
2003-02-13 09:30 51°16.514 2°39.179 4.8 308 -0.1 102780 77
2003-02-13 09:31 51°16.499 2°39.189 3 308 -0.1 102780 76
2003-02-13 09:32 51°16.482 2°39.196 2.6 320 -0.1 102790 76
2003-02-13 09:33 51°16.464 2°39.198 1.9 319 -0.1 102790 77
2003-02-13 09:34 51°16.427 2°39.22 8.4 281 -0.1 102780 77
2003-02-13 09:35 51°16.425 2°39.349 9 215 -0.1 102780 77
2003-02-13 09:36 51°16.496 2°39.511 9.9 208   102770 77
2003-02-13 09:37 51°16.613 2°39.747 12.3 221 -0.2 102760 77
2003-02-13 09:38 51°16.743 2°40.013 13.1 216 -0.3 102760 77
2003-02-13 09:39 51°16.874 2°40.283 13.9 220 -0.3 102760 77
2003-02-13 09:40 51°17.002 2°40.557 13.6 222 -0.2 102760 78
2003-02-13 09:41 51°17.114 2°40.837 13 219 -0.3 102760 77
2003-02-13 09:42 51°17.206 2°41.072 10.6 225 -0.3 102760 77
2003-02-13 09:43 51°17.245 2°41.225 9.4 231 -0.2 102770 77
2003-02-13 09:44 51°17.263 2°41.291 7.2 241 -0.3 102790 76
2003-02-13 09:45 51°17.274 2°41.292 6.3 261 -0.3 102790 76
2003-02-13 09:46 51°17.285 2°41.291 7.3 273 -0.1 102800 77
2003-02-13 09:47 51°17.288 2°41.308 7.3 273   102780 76
2003-02-13 09:48 51°17.288 2°41.337 7.6 251   102800 76
2003-02-13 09:49 51°17.293 2°41.366 7.9 242   102810 75
2003-02-13 09:50 51°17.3 2°41.385 6.8 236 -0.1 102800 73
2003-02-13 09:51 51°17.306 2°41.393 6.9 242 -0.2 102820 73
2003-02-13 09:52 51°17.314 2°41.391 6.9 271 -0.2 102810 73
2003-02-13 09:53 51°17.322 2°41.386 7.1 279   102810 74
2003-02-13 09:54 51°17.332 2°41.384 8 297   102810 73
2003-02-13 09:55 51°17.34 2°41.383 1.8 310   102820 73
2003-02-13 09:56 51°17.342 2°41.387 2.4 331 -0.1 102820 73
2003-02-13 09:57 51°17.338 2°41.393 1.4 337   102820 74
2003-02-13 09:58 51°17.332 2°41.399 3.7 305   102810 75
2003-02-13 09:59 51°17.325 2°41.401 1.5 320   102810 75
2003-02-13 10:00 51°17.317 2°41.399 2.8 345 0.1 102820 76
2003-02-13 10:01 51°17.309 2°41.391 3.5 345   102810 75
2003-02-13 10:02 51°17.301 2°41.384 5.8 352   102820 74
2003-02-13 10:03 51°17.292 2°41.377 6.4 357   102820 75
2003-02-13 10:04 51°17.284 2°41.365 6.5 359 -0.1 102810 73
2003-02-13 10:05 51°17.277 2°41.357 4 337 -0.1 102820 73
2003-02-13 10:06 51°17.272 2°41.352 2.6 333 -0.1 102810 74
2003-02-13 10:07 51°17.269 2°41.35 6.1 355 -0.1 102820 74
2003-02-13 10:08 51°17.267 2°41.349 0.4 349 -0.1 102810 74
2003-02-13 10:09 51°17.254 2°41.335 5 13   102810 75
2003-02-13 10:10 51°17.249 2°41.285 5.8 51   102810 74
2003-02-13 10:11 51°17.26 2°41.233 5.2 85 -0.1 102820 73
2003-02-13 10:12 51°17.291 2°41.193 5.3 135 -0.1 102810 73
2003-02-13 10:13 51°17.35 2°41.192 7.9 195 -0.1 102810 74
2003-02-13 10:14 51°17.378 2°41.317 10.2 282 -0.1 102800 75
2003-02-13 10:15 51°17.304 2°41.424 8.9 282   102790 75
2003-02-13 10:16 51°17.251 2°41.463 4.2 298 0.1 102790 74
2003-02-13 10:17 51°17.212 2°41.47 2.2 304 0.1 102800 74
2003-02-13 10:18 51°17.186 2°41.461 0.6 323 0.1 102800 73
2003-02-13 10:19 51°17.166 2°41.45 3 338 0.3 102800 75
2003-02-13 10:20 51°17.15 2°41.435 1.4 351 0.3 102800 75
2003-02-13 10:21 51°17.139 2°41.418 6.3 4 0.3 102800 75
2003-02-13 10:22 51°17.131 2°41.398 6.4 24 0.2 102800 75
2003-02-13 10:23 51°17.129 2°41.371 6.4 35 0.2 102810 75
2003-02-13 10:24 51°17.143 2°41.325 5.5 98 0.2 102810 75
2003-02-13 10:25 51°17.199 2°41.296 8.9 167 0.1 102790 75
2003-02-13 10:26 51°17.268 2°41.346 8.5 195 0.1 102800 76
2003-02-13 10:27 51°17.433 2°41.489 13.7 206 0.1 102790 76
2003-02-13 10:28 51°17.635 2°41.722 14.3 204 0.1 102790 75
2003-02-13 10:29 51°17.838 2°41.959 14.8 213 0.2 102790 75
2003-02-13 10:30 51°18.027 2°42.213 14.6 214 0.2 102790 75
2003-02-13 10:31 51°18.213 2°42.477 13.9 212 0.2 102800 76
2003-02-13 10:32 51°18.398 2°42.741 13.3 214 0.3 102800 76
2003-02-13 10:33 51°18.56 2°43.027 14.9 222 0.3 102800 75
2003-02-13 10:34 51°18.687 2°43.368 15.1 233 0.3 102810 74
2003-02-13 10:35 51°18.725 2°43.622 10.9 224 0.3 102810 73
2003-02-13 10:36 51°18.81 2°43.743 8.1 191 0.2 102800 72
2003-02-13 10:37 51°18.903 2°43.807 6.9 180 0.2 102790 73
2003-02-13 10:38 51°18.935 2°43.826 6.3 130 0.2 102800 73
2003-02-13 10:39 51°18.966 2°43.789 5.3 76 0.2 102810 74
2003-02-13 10:40 51°18.979 2°43.787 5.2 43 0.5 102820 76
2003-02-13 10:41 51°18.986 2°43.785 6.2 25 0.5 102820 74
2003-02-13 10:42 51°18.99 2°43.785 5.9 5 0.4 102820 74
2003-02-13 10:43 51°18.991 2°43.788 0.7 333 0.5 102820 75
2003-02-13 10:44 51°18.994 2°43.794 1.8 336 0.5 102820 75
2003-02-13 10:45 51°18.998 2°43.802 3.3 310 0.5 102820 75
2003-02-13 10:46 51°19.003 2°43.811 2.5 325 0.5 102820 75
2003-02-13 10:47 51°19.006 2°43.82 3.5 303 0.5 102820 74
2003-02-13 10:48 51°19.01 2°43.829 3.8 311 0.5 102820 74
2003-02-13 10:49 51°19.013 2°43.839 2.1 317 0.5 102820 74
2003-02-13 10:50 51°19.015 2°43.85 1.6 309 0.5 102820 74
2003-02-13 10:51 51°19.016 2°43.86 2.1 303 0.5 102810 74
2003-02-13 10:52 51°19.015 2°43.873 2.5 317 0.6 102810 75
2003-02-13 10:53 51°19.013 2°43.885 4.4 298 0.5 102810 74
2003-02-13 10:54 51°19.009 2°43.898 1.1 333 0.6 102810 75
2003-02-13 10:55 51°19.004 2°43.91 1.4 326 0.6 102810 75
2003-02-13 10:56 51°18.998 2°43.921 0.7 334 0.6 102810 75
2003-02-13 10:57 51°18.993 2°43.929 1.2 330 0.6 102810 75
2003-02-13 10:58 51°18.987 2°43.937 1.3 320 0.5 102800 74
2003-02-13 10:59 51°18.98 2°43.941 1 327 0.6 102800 74
2003-02-13 11:00 51°18.975 2°43.942 4.6 346 0.5 102810 74
2003-02-13 11:01 51°18.966 2°43.94 4.8 4 0.6 102790 75
2003-02-13 11:02 51°18.958 2°43.924 5.6 35 0.6 102790 75
2003-02-13 11:03 51°18.96 2°43.895 5.3 79 0.6 102800 75
2003-02-13 11:04 51°18.977 2°43.867 5.8 117 0.6 102800 75
2003-02-13 11:05 51°19.003 2°43.851 6 138 0.7 102800 75
2003-02-13 11:06 51°19.033 2°43.843 5.8 143 0.7 102800 76
2003-02-13 11:07 51°19.066 2°43.843 6.8 152 0.8 102790 76
2003-02-13 11:08 51°19.099 2°43.85 6.6 171 0.7 102790 76
2003-02-13 11:09 51°19.131 2°43.863 5.5 180 0.7 102780 74
2003-02-13 11:10 51°19.163 2°43.878 6.1 185 0.5 102790 72
2003-02-13 11:11 51°19.195 2°43.899 5.9 188 0.5 102790 73
2003-02-13 11:12 51°19.227 2°43.922 5.2 186 0.6 102780 73
2003-02-13 11:13 51°19.26 2°43.946 5.9 176 0.6 102780 73
2003-02-13 11:14 51°19.293 2°43.968 6.1 176 0.6 102780 73
2003-02-13 11:15 51°19.328 2°43.98 6.3 149 0.7 102780 73
2003-02-13 11:16 51°19.364 2°43.976 4.8 124 0.8 102780 74
2003-02-13 11:17 51°19.397 2°43.957 5.1 96 0.9 102780 73
2003-02-13 11:18 51°19.421 2°43.927 5.5 80 0.9 102780 72
2003-02-13 11:19 51°19.437 2°43.886 4.1 63 0.9 102780 72
2003-02-13 11:20 51°19.449 2°43.83 4.7 78 0.9 102780 72
2003-02-13 11:21 51°19.454 2°43.764 3.8 73 0.9 102780 72
2003-02-13 11:22 51°19.453 2°43.693 3.6 130 0.9 102780 72
2003-02-13 11:23 51°19.442 2°43.627 3.8 18 1 102780 72
2003-02-13 11:24 51°19.427 2°43.563 4.1 36 1 102780 72
2003-02-13 11:25 51°19.414 2°43.494 3.7 317 1 102780 72
2003-02-13 11:26 51°19.403 2°43.422 4 41 1.2 102780 72
2003-02-13 11:27 51°19.39 2°43.35 3.8 25 1.2 102780 69
2003-02-13 11:28 51°19.377 2°43.279 4 42 1.1 102780 70
2003-02-13 11:29 51°19.365 2°43.207 4.6 44 1.1 102780 70
2003-02-13 11:30 51°19.353 2°43.134 4.7 34 1.1 102770 69
2003-02-13 11:31 51°19.341 2°43.061 4.2 32 0.9 102780 68
2003-02-13 11:32 51°19.33 2°42.987 3.2 46 0.9 102770 68
2003-02-13 11:33 51°19.319 2°42.913 3.1 49 1.1 102770 71
2003-02-13 11:34 51°19.308 2°42.84 4.1 37 1.2 102770 70
2003-02-13 11:35 51°19.294 2°42.762 4.5 24 1.2 102770 69
2003-02-13 11:36 51°19.272 2°42.681 2.6 41 1.2 102770 69
2003-02-13 11:37 51°19.249 2°42.599 4 47 1.3 102770 69
2003-02-13 11:38 51°19.23 2°42.517 4.6 316 1.5 102770 69
2003-02-13 11:39 51°19.21 2°42.433 4.2 48 1.7 102760 69
2003-02-13 11:40 51°19.189 2°42.349 3.8 24 2 102760 68
2003-02-13 11:41 51°19.167 2°42.267 2.8 60 1.8 102760 67
2003-02-13 11:42 51°19.145 2°42.185 3.5 47 1.8 102760 69
2003-02-13 11:43 51°19.124 2°42.104 4.6 28 1.9 102760 69
2003-02-13 11:44 51°19.098 2°42.007 4.6 29 1.5 102760 68
2003-02-13 11:45 51°19.07 2°41.901 4.5 40 1.4 102760 68
2003-02-13 11:46 51°19.041 2°41.791 4.7 31 1.3 102750 68
2003-02-13 11:47 51°19.009 2°41.674 3.3 23 1.2 102750 67
2003-02-13 11:48 51°18.962 2°41.503 2.7 28 1.3 102750 69
2003-02-13 11:49 51°18.91 2°41.312 1.7 11 1.2 102750 67
2003-02-13 11:50 51°18.854 2°41.111 2.2 19 1.3 102750 67
2003-02-13 11:51 51°18.797 2°40.911 1.8 14 1.4 102740 67
2003-02-13 11:52 51°18.725 2°40.785 4 341 1.5 102740 68
2003-02-13 11:53 51°18.672 2°40.761 2.2 347 1.3 102740 67
2003-02-13 11:54 51°18.656 2°40.773 1.8 324 1.3 102740 68
2003-02-13 11:55 51°18.633 2°40.782 4.9 344 1.2 102740 69
2003-02-13 11:56 51°18.608 2°40.753 5.4 48 1.2 102740 69
2003-02-13 11:57 51°18.608 2°40.719 4.7 69 1.3 102730 68
2003-02-13 11:58 51°18.614 2°40.685 5.3 69 1.3 102730 66
2003-02-13 11:59 51°18.619 2°40.654 6.1 81 1.2 102730 66
2003-02-13 12:00 51°18.625 2°40.626 6.2 90 1.1 102720 64
2003-02-13 12:01 51°18.635 2°40.607 6.9 108 1.1 102710 65
2003-02-13 12:02 51°18.645 2°40.598 6.1 107 1.1 102720 65
2003-02-13 12:03 51°18.657 2°40.595 6.6 125 1.1 102720 67
2003-02-13 12:04 51°18.67 2°40.591 7 140 1.1 102720 67
2003-02-13 12:05 51°18.708 2°40.594 8.7 200 1.1 102720 67
2003-02-13 12:06 51°18.751 2°40.686 9.6 254 1 102710 64
2003-02-13 12:07 51°18.754 2°40.727 7.8 294 1.1 102710 64
2003-02-13 12:08 51°18.749 2°40.747 7.1 299 1.3 102730 66
2003-02-13 12:09 51°18.739 2°40.769 8.4 297 1.2 102730 64
2003-02-13 12:10 51°18.729 2°40.795 8.8 301 1.2 102720 65
2003-02-13 12:11 51°18.718 2°40.824 7.9 293 1.2 102730 65
2003-02-13 12:12 51°18.706 2°40.857 7.6 284 1.2 102720 66
2003-02-13 12:13 51°18.695 2°40.891 9.5 293 1.3 102710 67
2003-02-13 12:14 51°18.636 2°40.904 5 15 1.2 102720 66
2003-02-13 12:15 51°18.611 2°40.825 7.6 78 1.3 102720 67
2003-02-13 12:16 51°18.615 2°40.805 7.6 102 1.3 102700 67
2003-02-13 12:17 51°18.625 2°40.787 6.2 111 1.1 102700 65
2003-02-13 12:18 51°18.637 2°40.768 7.1 109 1.1 102700 66
2003-02-13 12:19 51°18.651 2°40.749 5.9 106 1.2 102700 67
2003-02-13 12:20 51°18.664 2°40.726 6.9 117 1.2 102690 68
2003-02-13 12:21 51°18.676 2°40.702 6.5 107 1.2 102690 69
2003-02-13 12:22 51°18.689 2°40.677 6.4 110 1.1 102690 68
2003-02-13 12:23 51°18.7 2°40.651 6 101 1.2 102680 69
2003-02-13 12:24 51°18.709 2°40.624 7 91 1.1 102690 67
2003-02-13 12:25 51°18.701 2°40.566 5.7 3 1.1 102700 68
2003-02-13 12:26 51°18.679 2°40.536 7.2 21 1.1 102700 68
2003-02-13 12:27 51°18.659 2°40.522 1.1 333 1 102700 67
2003-02-13 12:28 51°18.639 2°40.531 2.9 302 1 102700 68
2003-02-13 12:29 51°18.623 2°40.552 6.8 305 1.1 102690 70
2003-02-13 12:30 51°18.609 2°40.579 9.2 300 1.2 102680 71
2003-02-13 12:31 51°18.597 2°40.606 6.8 284 1.2 102680 69
2003-02-13 12:32 51°18.588 2°40.65 8.6 257 1.2 102690 69
2003-02-13 12:33 51°18.636 2°40.792 12.8 225 1.3 102680 69
2003-02-13 12:34 51°18.739 2°41.103 14.8 237 1.2 102670 67
2003-02-13 12:35 51°18.81 2°41.453 15.9 233 1.2 102660 69
2003-02-13 12:36 51°18.884 2°41.817 15.3 236 1.1 102670 66
2003-02-13 12:37 51°18.959 2°42.194 15.5 236 1.1 102670 67
2003-02-13 12:38 51°19.034 2°42.556 15.5 241 1.1 102660 68
2003-02-13 12:39 51°19.111 2°42.918 15.8 238 1.1 102660 69
2003-02-13 12:40 51°19.188 2°43.28 16.4 240 1.1 102670 69
2003-02-13 12:41 51°19.265 2°43.642 16.8 238 1.1 102650 68
2003-02-13 12:42 51°19.342 2°44.004 16.1 240 1 102660 67
2003-02-13 12:43 51°19.408 2°44.364 14.7 238 1 102650 68
2003-02-13 12:44 51°19.471 2°44.733 15.9 236 1 102660 68
2003-02-13 12:45 51°19.532 2°45.107 15.5 235 1 102660 67
2003-02-13 12:46 51°19.585 2°45.46 14.6 237 1.1 102650 68
2003-02-13 12:47 51°19.637 2°45.827 14.9 243 1 102660 69
2003-02-13 12:48 51°19.69 2°46.203 15.1 238 1 102650 69
2003-02-13 12:49 51°19.743 2°46.572 15.2 239 1 102660 68
2003-02-13 12:50 51°19.799 2°46.949 15.5 234 1 102660 68
2003-02-13 12:51 51°19.847 2°47.268 13.9 239 1 102670 68
2003-02-13 12:52 51°19.881 2°47.488 10 248 1 102670 68
2003-02-13 12:53 51°19.879 2°47.609 9.4 285 1 102670 69
2003-02-13 12:54 51°19.858 2°47.675 7.8 258 1 102670 69
2003-02-13 12:55 51°19.86 2°47.731 7.7 240 1 102680 69
2003-02-13 12:56 51°19.876 2°47.769 8.5 222 1 102680 69
2003-02-13 12:57 51°19.896 2°47.78 7.3 178 0.9 102660 68
2003-02-13 12:58 51°19.916 2°47.769 8.1 141 0.8 102650 69
2003-02-13 12:59 51°19.937 2°47.749 7.3 148 0.8 102670 69
2003-02-13 13:00 51°19.958 2°47.733 6.4 146 0.7 102670 68
2003-02-13 13:01 51°19.977 2°47.715 7.1 143 0.8 102670 70
2003-02-13 13:02 51°19.994 2°47.695 7.5 128 0.9 102670 70
2003-02-13 13:03 51°20.01 2°47.673 5.2 126 0.9 102670 70
2003-02-13 13:04 51°20.025 2°47.65 7.4 138 1 102680 72
2003-02-13 13:05 51°20.039 2°47.625 6.2 121 1 102670 71
2003-02-13 13:06 51°20.052 2°47.598 6.8 124 0.9 102670 69
2003-02-13 13:07 51°20.064 2°47.571 5.9 108 1 102670 70
2003-02-13 13:08 51°20.075 2°47.541 7 115 1 102670 69
2003-02-13 13:09 51°20.083 2°47.509 6.7 100 1 102670 69
2003-02-13 13:10 51°20.088 2°47.475 6.2 94 1 102670 70
2003-02-13 13:11 51°20.091 2°47.438 6.5 72 1 102670 71
2003-02-13 13:12 51°20.09 2°47.399 5.3 62 0.9 102670 69
2003-02-13 13:13 51°20.082 2°47.362 6.3 46 1 102670 71
2003-02-13 13:14 51°20.066 2°47.336 7 11 1 102670 68
2003-02-13 13:15 51°20.045 2°47.323 2.8 349 0.9 102650 69
2003-02-13 13:16 51°20.028 2°47.322 2.9 301 1 102650 70
2003-02-13 13:17 51°20.011 2°47.329 5.7 305 1 102650 70
2003-02-13 13:18 51°19.997 2°47.339 6.5 294 1.1 102650 70
2003-02-13 13:19 51°19.987 2°47.352 7.6 289 1.1 102640 71
2003-02-13 13:20 51°19.977 2°47.367 8 291 1.1 102630 70
2003-02-13 13:21 51°19.962 2°47.383 4.9 305 1.2 102630 71
2003-02-13 13:22 51°19.94 2°47.399 3.4 312 1.2 102630 72
2003-02-13 13:23 51°19.914 2°47.407 1.6 330 1.2 102630 72
2003-02-13 13:24 51°19.885 2°47.399 6.7 13 1.2 102640 73
2003-02-13 13:25 51°19.859 2°47.37 6.4 43 1 102640 72
2003-02-13 13:26 51°19.844 2°47.321 6.8 73 1.2 102650 74
2003-02-13 13:27 51°19.845 2°47.266 5 108 1.1 102650 71
2003-02-13 13:28 51°19.86 2°47.224 6.6 142 1.1 102640 72
2003-02-13 13:29 51°19.88 2°47.194 7.2 151 1.1 102650 72
2003-02-13 13:30 51°19.902 2°47.174 7.2 175 1 102640 72
2003-02-13 13:31 51°19.926 2°47.162 6.9 180 0.9 102630 71
2003-02-13 13:32 51°19.952 2°47.154 7.2 180 0.9 102620 71
2003-02-13 13:33 51°19.983 2°47.154 8 195 0.8 102620 72
2003-02-13 13:34 51°20.017 2°47.168 9.7 209 0.8 102610 72
2003-02-13 13:35 51°20.058 2°47.225 9.9 232 0.8 102610 72
2003-02-13 13:36 51°20.069 2°47.322 9.4 259 0.9 102620 71
2003-02-13 13:37 51°20.046 2°47.416 9.8 277 1 102610 71
2003-02-13 13:38 51°20.002 2°47.491 9.9 293 1.1 102610 71
2003-02-13 13:39 51°19.946 2°47.554 7.9 292 1.1 102610 71
2003-02-13 13:40 51°19.883 2°47.598 7.3 296 1.1 102620 71
2003-02-13 13:41 51°19.817 2°47.624 3 324 1.2 102610 72
2003-02-13 13:42 51°19.752 2°47.641 1 339 1.2 102620 72
2003-02-13 13:43 51°19.685 2°47.637 2.7 316 1.2 102620 72
2003-02-13 13:44 51°19.619 2°47.606 5.8 351 1.1 102620 71
2003-02-13 13:45 51°19.558 2°47.554 5.6 11 1.1 102620 71
2003-02-13 13:46 51°19.507 2°47.477 5.2 29 1.1 102620 72
2003-02-13 13:47 51°19.475 2°47.375 5.4 48 1 102630 69
2003-02-13 13:48 51°19.464 2°47.268 4.9 82 1 102630 67
2003-02-13 13:49 51°19.473 2°47.164 5.2 108 1.1 102630 69
2003-02-13 13:50 51°19.496 2°47.071 6.7 121 1.1 102620 71
2003-02-13 13:51 51°19.53 2°46.987 6.4 145 1.1 102630 70
2003-02-13 13:52 51°19.572 2°46.915 6.6 139 1.1 102630 70
2003-02-13 13:53 51°19.62 2°46.855 7.6 165 1.1 102620 69
2003-02-13 13:54 51°19.672 2°46.806 7.9 164 1.1 102620 69
2003-02-13 13:55 51°19.727 2°46.767 7.6 160 1.1 102620 70
2003-02-13 13:56 51°19.781 2°46.741 8.1 163 1 102620 69
2003-02-13 13:57 51°19.825 2°46.732 7.9 192 1.1 102610 71
2003-02-13 13:58 51°19.858 2°46.728 7 201 1 102600 70
2003-02-13 13:59 51°19.881 2°46.722 7 191 1 102610 71
2003-02-13 14:00 51°19.896 2°46.71 5.5 184 1 102610 70
2003-02-13 14:01 51°19.928 2°46.728 10.1 230 1.1 102590 72
2003-02-13 14:02 51°19.93 2°46.865 11.4 270 1.1 102600 69
2003-02-13 14:03 51°19.828 2°47.054 11.7 278 1.2 102580 69
2003-02-13 14:04 51°19.742 2°47.255 10.6 270 1.2 102580 68
2003-02-13 14:05 51°19.664 2°47.444 12.1 270 1.3 102580 69
2003-02-13 14:06 51°19.588 2°47.625 10.5 271 1.3 102570 68
2003-02-13 14:07 51°19.512 2°47.803 11.2 266 1.3 102570 68
2003-02-13 14:08 51°19.435 2°47.979 10.7 271 1.4 102570 67
2003-02-13 14:09 51°19.357 2°48.156 11.9 274 1.4 102570 66
2003-02-13 14:10 51°19.279 2°48.331 12 273 1.4 102570 67
2003-02-13 14:11 51°19.202 2°48.506 11.5 277 1.4 102570 67
2003-02-13 14:12 51°19.123 2°48.68 11.2 271 1.4 102560 68
2003-02-13 14:13 51°19.046 2°48.856 12.2 267 1.4 102560 67
2003-02-13 14:14 51°18.969 2°49.028 10.8 270 1.4 102560 66
2003-02-13 14:15 51°18.892 2°49.201 12.3 271 1.5 102580 67
2003-02-13 14:16 51°18.817 2°49.373 10.9 270 1.4 102570 65
2003-02-13 14:17 51°18.741 2°49.543 11.1 272 1.4 102570 65
2003-02-13 14:18 51°18.665 2°49.714 11 272 1.4 102570 67
2003-02-13 14:19 51°18.588 2°49.883 11.2 270 1.4 102570 66
2003-02-13 14:20 51°18.512 2°50.053 10.6 262 1.4 102570 65
2003-02-13 14:21 51°18.435 2°50.224 11.2 265 1.4 102580 65
2003-02-13 14:22 51°18.356 2°50.393 10.8 268 1.4 102570 64
2003-02-13 14:23 51°18.276 2°50.562 11.7 271 1.5 102570 66
2003-02-13 14:24 51°18.197 2°50.732 11.2 266 1.4 102570 65
2003-02-13 14:25 51°18.117 2°50.902 10.2 275 1.4 102580 66
2003-02-13 14:26 51°18.036 2°51.073 11.5 276 1.4 102570 66
2003-02-13 14:27 51°17.955 2°51.244 11.4 269 1.4 102560 66
2003-02-13 14:28 51°17.874 2°51.414 12.4 273 1.3 102570 66
2003-02-13 14:29 51°17.794 2°51.584 10.2 282 1.3 102570 66
2003-02-13 14:30 51°17.713 2°51.753 12.6 274 1.3 102570 67
2003-02-13 14:31 51°17.628 2°51.916 9.4 279 1.3 102560 67
2003-02-13 14:32 51°17.519 2°52.049 10.2 284 1.4 102570 68
2003-02-13 14:33 51°17.404 2°52.17 9.4 294 1.3 102570 68
2003-02-13 14:34 51°17.272 2°52.253 8.5 303 1.3 102570 68
2003-02-13 14:35 51°17.138 2°52.333 9.4 293 1.4 102570 68
2003-02-13 14:36 51°17.005 2°52.414 8.7 298 1.5 102570 69
2003-02-13 14:37 51°16.872 2°52.499 9.4 292 1.5 102570 69
2003-02-13 14:38 51°16.739 2°52.582 10.5 294 1.5 102570 68
2003-02-13 14:39 51°16.605 2°52.666 8.7 290 1.6 102570 68
2003-02-13 14:40 51°16.473 2°52.747 8.8 284 1.6 102570 68
2003-02-13 14:41 51°16.356 2°52.861 10.9 286 1.6 102560 68
2003-02-13 14:42 51°16.248 2°52.992 10.5 279 1.6 102560 68
2003-02-13 14:43 51°16.139 2°53.121 10.4 280 1.6 102550 69
2003-02-13 14:44 51°16.031 2°53.247 10.2 280 1.6 102560 68
2003-02-13 14:45 51°15.949 2°53.338 10 283 1.6 102560 69
2003-02-13 14:46 51°15.878 2°53.407 8.2 278 1.6 102560 69
2003-02-13 14:47 51°15.81 2°53.469 9.1 276 1.7 102560 69
2003-02-13 14:48 51°15.742 2°53.524 9.2 275 1.7 102560 67
2003-02-13 14:49 51°15.676 2°53.579 8.5 274 1.6 102560 65
2003-02-13 14:50 51°15.611 2°53.634 8.7 278 1.6 102570 65
2003-02-13 14:51 51°15.545 2°53.686 8 282 1.7 102560 65
2003-02-13 14:52 51°15.462 2°53.766 10.5 271 1.6 102560 65
2003-02-13 14:53 51°15.316 2°53.932 12.5 262 1.7 102550 65
2003-02-13 14:54 51°15.157 2°54.114 11.9 264 1.7 102550 64
2003-02-13 14:55 51°14.995 2°54.295 10.4 265 1.7 102550 65
2003-02-13 14:56 51°14.832 2°54.482 12.2 257 1.7 102550 65
2003-02-13 14:57 51°14.668 2°54.666 10.4 259 1.7 102550 63
2003-02-13 14:58 51°14.511 2°54.851 10.3 267 1.7 102560 65
2003-02-13 14:59 51°14.387 2°55.027 10.1 271 1.7 102550 65